When you browse on this site, cookies collect data to enhance your experience and personalize the content and advertising you see.
Visit our Privacy Policy to learn more. By continuing to use the site, you agree to this use of cookies and data.
  • Em Portugal
  • Lista de países
  • Para 7 dias
  • Temperatura da água
  • Mapas de satélite
  • Mapa do tempo
  • Widgets de tempo
  • user-avatar
    Iniciar Sessão

    Previsão horária em Starobeshevo

    Hoje, 19 Fevereiro, Terça-feira

    Tempo Temperatura Precipitação Vento Pressão Humidade
    00:00 -4°C° 0 mm 4 m/s 756 mmHg 74%
    01:00 -4°C° 0 mm 4 m/s 757 mmHg 75%
    02:00 -5°C° 0 mm 3 m/s 757 mmHg 76%
    03:00 -5°C° 0 mm 3 m/s 757 mmHg 77%
    04:00 -5°C° 0 mm 3 m/s 757 mmHg 78%
    05:00 -5°C° 0 mm 3 m/s 758 mmHg 78%
    06:00 -6°C° 0 mm 3 m/s 758 mmHg 78%
    07:00 -5°C° 0 mm 3 m/s 758 mmHg 77%
    08:00 -5°C° 0 mm 3 m/s 759 mmHg 76%
    09:00 -5°C° 0 mm 3 m/s 759 mmHg 74%
    10:00 -3°C° 0 mm 2 m/s 760 mmHg 69%
    11:00 -2°C° 0 mm 2 m/s 760 mmHg 64%
    12:00 -1°C° 0 mm 2 m/s 760 mmHg 59%
    13:00 -1°C° 0 mm 2 m/s 760 mmHg 57%
    14:00 -1°C° 0 mm 2 m/s 760 mmHg 56%
    15:00 +2°C° 0 mm 1 m/s 760 mmHg 54%
    16:00 +1°C° 0 mm 1 m/s 760 mmHg 58%
    17:00 0°C° 0 mm 1 m/s 760 mmHg 62%
    18:00 0°C° 0 mm 1 m/s 760 mmHg 66%
    19:00 -1°C° 0 mm 1 m/s 760 mmHg 67%
    20:00 -3°C° 0 mm 2 m/s 760 mmHg 68%
    21:00 -3°C° 0 mm 2 m/s 759 mmHg 69%
    22:00 -3°C° 0 mm 2 m/s 759 mmHg 69%
    23:00 -3°C° 0 mm 2 m/s 759 mmHg 69%

    Amanhã, 20 Fevereiro, Quarta-feira

    Tempo Temperatura Precipitação Vento Pressão Humidade
    00:00 -3°C° 0 mm 2 m/s 759 mmHg 68%
    01:00 -3°C° 0 mm 2 m/s 758 mmHg 67%
    02:00 -3°C° 0 mm 2 m/s 758 mmHg 66%
    03:00 -3°C° 0 mm 2 m/s 758 mmHg 65%
    04:00 -3°C° 0 mm 2 m/s 757 mmHg 65%
    05:00 -3°C° 0 mm 2 m/s 757 mmHg 66%
    06:00 -3°C° 0 mm 2 m/s 756 mmHg 66%
    07:00 -4°C° 0 mm 3 m/s 756 mmHg 66%
    08:00 -2°C° 0 mm 3 m/s 756 mmHg 65%
    09:00 -2°C° 0 mm 3 m/s 755 mmHg 65%
    10:00 -1°C° 0 mm 4 m/s 755 mmHg 61%
    11:00 0°C° 0 mm 4 m/s 755 mmHg 58%
    12:00 +1°C° 0 mm 5 m/s 754 mmHg 54%
    13:00 +1°C° 0 mm 5 m/s 754 mmHg 56%
    14:00 +2°C° 0 mm 5 m/s 754 mmHg 57%
    15:00 +2°C° 0 mm 5 m/s 753 mmHg 58%
    16:00 +1°C° 0 mm 5 m/s 753 mmHg 64%
    17:00 0°C° 0 mm 4 m/s 752 mmHg 70%
    18:00 -1°C° 0 mm 4 m/s 752 mmHg 76%
    19:00 -1°C° 0 mm 4 m/s 752 mmHg 77%
    20:00 -1°C° 0 mm 4 m/s 752 mmHg 78%
    21:00 -1°C° 0 mm 4 m/s 752 mmHg 79%
    22:00 -1°C° 0 mm 4 m/s 751 mmHg 78%
    23:00 -1°C° 0 mm 4 m/s 751 mmHg 77%

    Depois de amanhã, 21 Fevereiro, Quinta-feira

    Tempo Temperatura Precipitação Vento Pressão Humidade
    00:00 -1°C° 0 mm 4 m/s 751 mmHg 77%
    01:00 0°C° 0 mm 4 m/s 750 mmHg 79%
    02:00 0°C° 0 mm 4 m/s 750 mmHg 81%
    03:00 0°C° 0 mm 4 m/s 750 mmHg 84%
    04:00 0°C° 0.1 mm 4 m/s 750 mmHg 87%
    05:00 0°C° 0.1 mm 4 m/s 749 mmHg 91%
    06:00 0°C° 0.1 mm 4 m/s 749 mmHg 95%
    07:00 0°C° 0 mm 4 m/s 749 mmHg 94%
    08:00 +1°C° 0 mm 4 m/s 749 mmHg 93%
    09:00 +1°C° 0 mm 4 m/s 749 mmHg 92%
    10:00 +2°C° 0 mm 5 m/s 749 mmHg 81%
    11:00 +3°C° 0 mm 6 m/s 748 mmHg 71%
    12:00 +4°C° 0 mm 7 m/s 748 mmHg 60%
    13:00 +4°C° 0.1 mm 7 m/s 748 mmHg 63%
    14:00 +3°C° 0.1 mm 7 m/s 748 mmHg 65%
    15:00 +2°C° 0.1 mm 8 m/s 748 mmHg 67%
    16:00 +2°C° 0.1 mm 7 m/s 748 mmHg 67%
    17:00 0°C° 0.1 mm 7 m/s 748 mmHg 66%
    18:00 -1°C° 0.1 mm 7 m/s 749 mmHg 66%
    19:00 -2°C° 0 mm 7 m/s 749 mmHg 66%
    20:00 -3°C° 0 mm 6 m/s 749 mmHg 65%
    21:00 -4°C° 0 mm 6 m/s 750 mmHg 65%
    22:00 -4°C° 0.1 mm 6 m/s 750 mmHg 65%
    23:00 -4°C° 0.1 mm 6 m/s 750 mmHg 65%

    22 Fevereiro, Sexta-feira

    Tempo Temperatura Precipitação Vento Pressão Humidade
    00:00 -4°C° 0.1 mm 6 m/s 750 mmHg 65%
    01:00 -4°C° 0 mm 6 m/s 750 mmHg 65%
    02:00 -5°C° 0 mm 6 m/s 751 mmHg 64%
    03:00 -5°C° 0 mm 6 m/s 751 mmHg 64%
    04:00 -5°C° 0 mm 6 m/s 751 mmHg 63%
    05:00 -6°C° 0 mm 5 m/s 751 mmHg 63%
    06:00 -6°C° 0 mm 5 m/s 751 mmHg 62%
    07:00 -6°C° 0 mm 5 m/s 751 mmHg 62%
    08:00 -6°C° 0 mm 5 m/s 751 mmHg 61%
    09:00 -5°C° 0 mm 4 m/s 752 mmHg 61%
    10:00 -4°C° 0 mm 4 m/s 752 mmHg 60%
    11:00 -4°C° 0 mm 4 m/s 752 mmHg 58%
    12:00 -3°C° 0 mm 4 m/s 751 mmHg 57%
    13:00 -3°C° 0 mm 4 m/s 751 mmHg 57%
    14:00 -3°C° 0 mm 4 m/s 751 mmHg 57%
    15:00 -3°C° 0 mm 4 m/s 751 mmHg 58%
    16:00 -3°C° 0 mm 4 m/s 751 mmHg 61%
    17:00 -4°C° 0 mm 4 m/s 752 mmHg 64%
    18:00 -4°C° 0 mm 4 m/s 752 mmHg 68%
    19:00 -6°C° 0.1 mm 5 m/s 752 mmHg 70%
    20:00 -7°C° 0.1 mm 5 m/s 753 mmHg 73%
    21:00 -8°C° 0.1 mm 6 m/s 753 mmHg 76%
    22:00 -9°C° 0 mm 6 m/s 754 mmHg 72%
    23:00 -10°C° 0 mm 6 m/s 754 mmHg 68%

    23 Fevereiro, Sábado

    Tempo Temperatura Precipitação Vento Pressão Humidade
    00:00 -11°C° 0 mm 6 m/s 754 mmHg 65%
    01:00 -12°C° 0 mm 6 m/s 755 mmHg 64%
    02:00 -12°C° 0 mm 6 m/s 755 mmHg 64%
    03:00 -12°C° 0 mm 5 m/s 755 mmHg 64%
    04:00 -12°C° 0 mm 5 m/s 755 mmHg 64%
    05:00 -12°C° 0 mm 6 m/s 755 mmHg 65%
    06:00 -12°C° 0 mm 6 m/s 755 mmHg 65%
    07:00 -14°C° 0 mm 6 m/s 756 mmHg 65%
    08:00 -14°C° 0 mm 6 m/s 756 mmHg 65%
    09:00 -14°C° 0 mm 6 m/s 757 mmHg 65%
    10:00 -12°C° 0 mm 6 m/s 757 mmHg 64%
    11:00 -12°C° 0 mm 6 m/s 757 mmHg 62%
    12:00 -12°C° 0 mm 6 m/s 757 mmHg 61%
    13:00 -11°C° 0 mm 6 m/s 757 mmHg 61%
    14:00 -11°C° 0 mm 6 m/s 757 mmHg 60%
    15:00 -10°C° 0 mm 6 m/s 757 mmHg 59%
    16:00 -11°C° 0 mm 6 m/s 758 mmHg 62%
    17:00 -11°C° 0 mm 6 m/s 758 mmHg 65%
    18:00 -12°C° 0 mm 6 m/s 758 mmHg 67%
    19:00 -12°C° 0 mm 5 m/s 759 mmHg 69%
    20:00 -13°C° 0 mm 5 m/s 759 mmHg 70%
    21:00 -13°C° 0 mm 5 m/s 759 mmHg 72%
    22:00 -13°C° 0 mm 5 m/s 759 mmHg 73%
    23:00 -13°C° 0 mm 5 m/s 759 mmHg 74%

    24 Fevereiro, Domingo

    Tempo Temperatura Precipitação Vento Pressão Humidade
    00:00 -14°C° 0 mm 5 m/s 759 mmHg 75%
    01:00 -14°C° 0 mm 5 m/s 759 mmHg 75%
    02:00 -14°C° 0 mm 5 m/s 759 mmHg 76%
    03:00 -14°C° 0 mm 5 m/s 759 mmHg 76%
    04:00 -14°C° 0 mm 5 m/s 759 mmHg 76%
    05:00 -14°C° 0 mm 5 m/s 759 mmHg 77%
    06:00 -14°C° 0 mm 5 m/s 759 mmHg 77%
    07:00 -14°C° 0 mm 5 m/s 759 mmHg 77%
    08:00 -13°C° 0 mm 5 m/s 759 mmHg 77%
    09:00 -13°C° 0 mm 5 m/s 759 mmHg 77%
    10:00 -12°C° 0.1 mm 5 m/s 760 mmHg 76%
    11:00 -11°C° 0.1 mm 5 m/s 760 mmHg 76%
    12:00 -11°C° 0.1 mm 5 m/s 760 mmHg 75%
    13:00 -10°C° 0.1 mm 5 m/s 760 mmHg 75%
    14:00 -8°C° 0.1 mm 5 m/s 759 mmHg 75%
    15:00 -8°C° 0.1 mm 5 m/s 759 mmHg 75%
    16:00 -8°C° 0 mm 5 m/s 759 mmHg 77%
    17:00 -8°C° 0 mm 5 m/s 760 mmHg 79%
    18:00 -8°C° 0 mm 5 m/s 760 mmHg 82%
    19:00 -9°C° 0.1 mm 6 m/s 760 mmHg 82%
    20:00 -9°C° 0.1 mm 6 m/s 760 mmHg 83%
    21:00 -9°C° 0.1 mm 6 m/s 760 mmHg 83%
    22:00 -9°C° 0 mm 6 m/s 760 mmHg 84%
    23:00 -9°C° 0 mm 6 m/s 760 mmHg 84%
    Mostrar mais